THOR ABLESTAR DEB, 1942

Orbit data source: Space-Track

THOR ABLESTAR DEB, 1942 is space debris in LEO originally from a launch on Thu, 29 Jun 1961 UTC launched from the Air Force Eastern Test Range (AFETR). Debris objects in space refer to the collection of defunct objects orbiting the Earth. Examples of debris include non-operational satellites, rocket bodies, and fragments generated from explosions, collisions, or faulty payload assembly.

Loading next visibility...
Identifier
1942, 1961-015HS
Orbit
LEO
Country
Flag of USUS
Related business
Manufacturer
Unknown
Mission
Spacecraft
Bus & Motor
Unknown
Mass
Unknown
Launch date (UTC)
1961-06-29 (64 years ago)
Launch vehicle
Unknown
Launch site
Air Force Eastern Test Range (AFETR)
Object type
Payload
Rocket body
Debris
Shape & HBR
Unknown
Radar Cross Section
Small (<0.1 m²)

Expand to show TLE details & history
Last TLE update: 8 hours ago

TLE from 8 hours ago
0 THOR ABLESTAR DEB
1 01942U 61015HS  25260.96520447  .00000442  00000-0  10442-2 0  9994
2 01942  67.2678 211.6717 0331934  77.6975 344.8044 13.13068702 81077
Epoch: 2025-09-17T23:09Z
TLE epoch observation values (Epoch: 2025-09-17T23:09:53.666Z)
Latitude
54.23887°
Longitude
-97.57624°
Altitude
976.89 km
Speed
7.486 km/s
True Right ascension
16h 28m 07s
True Declination
54° 04' 50"
Sunlit
Object was in daylight at epoch
Visualization orbit readout
Latitude
Unknown
Longitude
Unknown
Altitude
Unknown
Speed
Unknown
Apparent Right ascension
Unknown
Apparent Declination
Unknown
Sunlit
N/A
Visualization observer readout
Local Sidereal Time
00:11:38
Azimuth
Unknown
Elevation
Unknown
Doppler factor
Unknown
Orbital elements
Apogee altitude
1,461.578 km
Perigee altitude
957.845 km
Semi-major axis
7,587.849 km
Eccentricity
0.03319
Inclination
67.2678°
RAAN
211.6717°
Arg. of periapsis
77.6975°
True anomaly
343.76594°
Mean anomaly
344.8044°
Eccentric anomaly
344.28942°
Mean motion
3.28371 °/min
Orbital period
109.63 mins
BSTAR
0.0010442
Loading maneuver chart data...
Computing Atmospheric mass density...

Documentation

Showing up to 5 results
|